(137442) = 1999 TJ239

Discovered at Catalina on 1999-10-04 by CSS.

Orbit

Orbit type: Main Belt

Note: WebGL enabled browser required.

epoch2023-09-13.0
epoch JD2460200.5
perihelion date2021-09-16.34438
perihelion JD2459473.84438
argument of perihelion (°)76.84747
ascending node (°)63.68672
inclination (°)8.48848
eccentricity0.1042869
perihelion distance (AU)2.0581484
Tisserand w.r.t. Jupiter3.6
ΔV w.r.t. Earth (km/sec)9.3
semimajor axis (AU)2.2977762
mean anomaly (°)205.62261
mean daily motion (°/day)0.28297120
aphelion distance (AU)2.537
period (years)3.48
P-vector [x]-0.76244225
P-vector [y]0.52165363
P-vector [z]0.38283065
Q-vector [x]-0.63338328
Q-vector [y]-0.72267411
Q-vector [z]-0.27670877
absolute magnitude15.21
phase slope0.15
uncertainty0
referenceMPEC 2024-A55
observations used1910
oppositions16
arc length (days)8852
first opposition used1999
last opposition used2023
residual rms (arc-secs)0.67
perturbers coarse indicatorM-v
perturbers precise indicator003Ek
first observation date used1999-10-04.0
last observation date used2023-12-29.0
computer nameMPCLINUX
JD of orbit computation2456731.493288
perihelion JD uncertainty (days)1.2256E-04
argument of perihelion uncertainty (°)4.9697E-05
ascending node uncertainty (°)3.3165E-05
inclination uncertainty (°)5.8528E-06
eccentricity uncertainty 4.9291E-08
perihelion distance uncertainty (AU)1.1827E-07
Minimum Orbit Intersection Distances (in AU)
for orbit epoch: 2460200.5, reference: E2024-A34
Mercury1.70231
Venus1.3442
Earth1.08958
Mars0.44881
Jupiter2.50578
Saturn6.86808
Uranus16.3797
Neptune27.4264

Observations

1949 total observations over interval: 1999 10 04.30749 – 2023 12 29.226554
These data are available for download (format description).

Date (UT) J2000 RA J2000 Dec Magn Location Ref
1999 10 04.30749 02 06 39.16 +02 44 09.3 18.0 R 703 – Catalina Sky Survey MPS 15428
1999 10 04.31958 02 06 38.50 +02 44 05.8 18.3 R 703 – Catalina Sky Survey MPS 15428
1999 10 04.33169 02 06 37.86 +02 44 03.4 18.5 R 703 – Catalina Sky Survey MPS 15428
1999 10 04.34379 02 06 37.25 +02 44 01.2 18.6 R 703 – Catalina Sky Survey MPS 15428
1999 10 09.25046 02 02 12.50 +02 27 05.2 18.2   704 – Lincoln Laboratory ETS, New Mexico MPS 15428
1999 10 09.26593 02 02 11.59 +02 27 01.7 18.8   704 – Lincoln Laboratory ETS, New Mexico MPS 15428
1999 10 09.28149 02 02 10.64 +02 26 59.0 19.0   704 – Lincoln Laboratory ETS, New Mexico MPS 15428
1999 10 09.29694 02 02 09.81 +02 26 55.5 18.8   704 – Lincoln Laboratory ETS, New Mexico MPS 15428
1999 10 09.31238 02 02 08.85 +02 26 52.6 18.5   704 – Lincoln Laboratory ETS, New Mexico MPS 15428
1999 10 12.29730 01 59 14.77 +02 16 48.4 18.4 R 699 – Lowell Observatory-LONEOS MPS 15428
1999 10 12.32787 01 59 12.83 +02 16 41.4   699 – Lowell Observatory-LONEOS MPS 15428
1999 10 12.35847 01 59 10.98 +02 16 35.8   699 – Lowell Observatory-LONEOS MPS 15428
1999 11 03.20874 01 36 21.59 +01 25 13.8 18.9 R 699 – Lowell Observatory-LONEOS MPS 15428
1999 11 03.23927 01 36 19.78 +01 25 14.2   699 – Lowell Observatory-LONEOS MPS 15428
1999 11 03.26985 01 36 17.81 +01 25 11.4   699 – Lowell Observatory-LONEOS MPS 15428
1999 11 06.24043 01 33 25.83 +01 23 07.9 18.7   704 – Lincoln Laboratory ETS, New Mexico MPS 15428
1999 11 06.25675 01 33 24.84 +01 23 07.4 18.7   704 – Lincoln Laboratory ETS, New Mexico MPS 15428
1999 11 06.27308 01 33 23.92 +01 23 06.7 18.9   704 – Lincoln Laboratory ETS, New Mexico MPS 15428
1999 11 06.28947 01 33 22.91 +01 23 06.1 19.4   704 – Lincoln Laboratory ETS, New Mexico MPS 15428
1999 11 17.13013 01 24 28.55 +01 28 55.7 18.2   704 – Lincoln Laboratory ETS, New Mexico MPS 15428
1999 11 17.17719 01 24 26.47 +01 28 59.9 18.5   704 – Lincoln Laboratory ETS, New Mexico MPS 15428
1999 11 17.19293 01 24 25.77 +01 28 59.6 18.7   704 – Lincoln Laboratory ETS, New Mexico MPS 15428
2001 01 04.46300 13 12 51.57 +02 15 23.7 19.1   704 – Lincoln Laboratory ETS, New Mexico MPS 26529
2001 01 04.47817 13 12 52.74 +02 15 18.8 19.5   704 – Lincoln Laboratory ETS, New Mexico MPS 26529
2001 01 04.49335 13 12 54.01 +02 15 12.9 19.2   704 – Lincoln Laboratory ETS, New Mexico MPS 26529
2001 01 04.50851 13 12 55.06 +02 15 07.4 19.5   704 – Lincoln Laboratory ETS, New Mexico MPS 26529
2001 01 04.52392 13 12 56.37 +02 15 04.2 19.3   704 – Lincoln Laboratory ETS, New Mexico MPS 26529
2001 01 26.45703 13 37 57.94 +00 47 48.0 18.4   704 – Lincoln Laboratory ETS, New Mexico MPS 26529
2001 01 26.47206 13 37 58.72 +00 47 46.4 18.5   704 – Lincoln Laboratory ETS, New Mexico MPS 26529
2001 01 26.48719 13 37 59.48 +00 47 43.6 18.5   704 – Lincoln Laboratory ETS, New Mexico MPS 26529
2001 01 26.50223 13 38 00.36 +00 47 42.0 18.7   704 – Lincoln Laboratory ETS, New Mexico MPS 26529
2001 01 26.51726 13 38 01.16 +00 47 39.4 18.3   704 – Lincoln Laboratory ETS, New Mexico MPS 26529
2001 02 16.43536 13 51 19.92 +00 31 07.2 18.4   704 – Lincoln Laboratory ETS, New Mexico MPS 26529
2001 02 16.44963 13 51 20.28 +00 31 07.1 18.9   704 – Lincoln Laboratory ETS, New Mexico MPS 26529
2001 02 16.46390 13 51 20.48 +00 31 08.6 18.3   704 – Lincoln Laboratory ETS, New Mexico MPS 26529
2001 02 16.47834 13 51 20.73 +00 31 09.2 17.8   704 – Lincoln Laboratory ETS, New Mexico MPS 26529
2001 02 16.49270 13 51 21.03 +00 31 10.7 18.4   704 – Lincoln Laboratory ETS, New Mexico MPS 26529
2001 03 04.39858 13 52 18.60 +01 01 09.1 18.1   704 – Lincoln Laboratory ETS, New Mexico MPS 27599
2001 03 04.41285 13 52 18.35 +01 01 11.1 18.9   704 – Lincoln Laboratory ETS, New Mexico MPS 27599
2001 03 04.42711 13 52 18.16 +01 01 13.4 18.3   704 – Lincoln Laboratory ETS, New Mexico MPS 27599
2001 03 04.44166 13 52 17.95 +01 01 16.6 18.4   704 – Lincoln Laboratory ETS, New Mexico MPS 27599
2001 03 04.45594 13 52 17.67 +01 01 18.8 18.6   704 – Lincoln Laboratory ETS, New Mexico MPS 27599
2001 03 16.31121 13 47 21.49 +01 40 38.6 17.7   704 – Lincoln Laboratory ETS, New Mexico MPS 27599
2001 03 16.32433 13 47 20.99 +01 40 40.4 18.2   704 – Lincoln Laboratory ETS, New Mexico MPS 27599
2001 03 16.33728 13 47 20.49 +01 40 44.1 18.5   704 – Lincoln Laboratory ETS, New Mexico MPS 27599
2001 03 16.35034 13 47 20.02 +01 40 46.2 18.2   704 – Lincoln Laboratory ETS, New Mexico MPS 27599
2001 03 16.36328 13 47 19.45 +01 40 49.1 19.0   704 – Lincoln Laboratory ETS, New Mexico MPS 27599
2001 03 20.53726 13 44 30.36 +01 56 20.8 18.7   608 – Haleakala-AMOS MPS 27599
2001 03 20.54797 13 44 29.87 +01 56 23.0 18.8   608 – Haleakala-AMOS MPS 27599
2001 03 20.55874 13 44 29.37 +01 56 25.1 18.9   608 – Haleakala-AMOS MPS 27599
2001 03 21.32891 13 43 55.13 +01 59 16.4 17.7 R 699 – Lowell Observatory-LONEOS MPS 27599
2001 03 21.36105 13 43 53.64 +01 59 23.8   699 – Lowell Observatory-LONEOS MPS 27599
2001 03 21.39298 13 43 52.09 +01 59 30.8   699 – Lowell Observatory-LONEOS MPS 27599
2001 03 21.43704 13 43 49.93 +01 59 40.4   699 – Lowell Observatory-LONEOS MPS 27599
2001 03 30.32207 13 36 08.81 +02 31 40.3 17.9   704 – Lincoln Laboratory ETS, New Mexico MPS 27599
2001 03 30.33672 13 36 07.93 +02 31 44.1 17.9   704 – Lincoln Laboratory ETS, New Mexico MPS 27599
2001 03 30.35149 13 36 07.02 +02 31 46.6 18.1   704 – Lincoln Laboratory ETS, New Mexico MPS 27599
2001 03 30.36636 13 36 06.18 +02 31 49.6 18.7   704 – Lincoln Laboratory ETS, New Mexico MPS 27599
2001 03 30.38179 13 36 05.22 +02 31 53.2 18.1   704 – Lincoln Laboratory ETS, New Mexico MPS 27599
2001 03 30.61239 13 35 51.77 +02 32 41.2 18.5   608 – Haleakala-AMOS MPS 27599
2001 03 30.62302 13 35 51.14 +02 32 43.1 18.8   608 – Haleakala-AMOS MPS 27599
2001 03 30.63359 13 35 50.52 +02 32 45.2 19.0   608 – Haleakala-AMOS MPS 27599
2001 03 31.33424 13 35 10.31 +02 35 02.1 18.3   704 – Lincoln Laboratory ETS, New Mexico MPS 27599
2001 03 31.34844 13 35 09.50 +02 35 04.3 18.7   704 – Lincoln Laboratory ETS, New Mexico MPS 27599
2001 03 31.36280 13 35 08.63 +02 35 07.4 17.8   704 – Lincoln Laboratory ETS, New Mexico MPS 27599
2001 03 31.37695 13 35 07.72 +02 35 09.6 18.0   704 – Lincoln Laboratory ETS, New Mexico MPS 27599
2001 03 31.39116 13 35 06.85 +02 35 12.2 17.5   704 – Lincoln Laboratory ETS, New Mexico MPS 27599
2001 04 15.27394 13 19 48.72 +03 10 08.0 17.5   704 – Lincoln Laboratory ETS, New Mexico MPS 29461
2001 04 15.28728 13 19 47.86 +03 10 09.1 17.9   704 – Lincoln Laboratory ETS, New Mexico MPS 29461
2001 04 15.30065 13 19 46.99 +03 10 10.0 18.4   704 – Lincoln Laboratory ETS, New Mexico MPS 29461
2001 04 15.31401 13 19 46.11 +03 10 11.7 18.8   704 – Lincoln Laboratory ETS, New Mexico MPS 29461
2001 04 15.32735 13 19 45.27 +03 10 12.2 18.0   704 – Lincoln Laboratory ETS, New Mexico MPS 29461
2001 04 27.25819 13 08 19.50 +03 10 34.4 16.5   704 – Lincoln Laboratory ETS, New Mexico MPS 29947
2001 04 27.27133 13 08 18.76 +03 10 33.1 16.4   704 – Lincoln Laboratory ETS, New Mexico MPS 29947
2001 04 27.28446 13 08 18.05 +03 10 31.8 16.4   704 – Lincoln Laboratory ETS, New Mexico MPS 29947
2001 04 27.29761 13 08 17.36 +03 10 30.4 15.9   704 – Lincoln Laboratory ETS, New Mexico MPS 29947
2001 05 15.31880 12 57 08.86 +02 16 00.6 20.2   608 – Haleakala-AMOS MPS 30751
2001 05 15.32895 12 57 08.61 +02 15 58.0 20.2   608 – Haleakala-AMOS MPS 30751
2001 05 15.34003 12 57 08.34 +02 15 54.4 19.9   608 – Haleakala-AMOS MPS 30751
2001 05 23.16570 12 55 15.76 +01 33 38.2 18.7   704 – Lincoln Laboratory ETS, New Mexico MPS 30751
2001 05 23.17715 12 55 15.74 +01 33 33.8 19.1   704 – Lincoln Laboratory ETS, New Mexico MPS 30751
2001 05 23.18821 12 55 15.52 +01 33 30.4 19.2   704 – Lincoln Laboratory ETS, New Mexico MPS 30751
2001 05 23.19855 12 55 15.45 +01 33 25.8 18.6 R 699 – Lowell Observatory-LONEOS MPS 30751
2001 05 23.19921 12 55 15.46 +01 33 25.9 19.3   704 – Lincoln Laboratory ETS, New Mexico MPS 30751
2001 05 23.21036 12 55 15.38 +01 33 21.8 19.3   704 – Lincoln Laboratory ETS, New Mexico MPS 30751
2001 05 23.22976 12 55 15.15 +01 33 14.3   699 – Lowell Observatory-LONEOS MPS 30751
2001 05 23.28447 12 55 14.70 +01 32 54.9   699 – Lowell Observatory-LONEOS MPS 30751
